Weather History for Erzincan, Turkey

Change the Weather History Date:

Thursday, September 6, 2012

  Actual Average Record
Temperature  
Mean Temperature 70 °F -  
Max Temperature 91 °F 78 °F - ()
Min Temperature 50 °F 48 °F - ()
Cooling Degree Days 6    
Growing Degree Days 20 (Base 50)    
Moisture  
Dew Point 42 °F    
Average Humidity 38    
Maximum Humidity 77    
Minimum Humidity 7    
Precipitation  
Precipitation 0.00 in 0.02 in - ()
Sea Level Pressure  
Sea Level Pressure 29.97 in    
Wind  
Wind Speed 1 mph ()    
Max Wind Speed 6 mph    
Max Gust Speed -    
Visibility 6.0 miles    
Events      
T = Trace of Precipitation, MM = Missing Value Source: Averaged Metar Reports

Daily Weather History Graph

Daily Weather History Graph

Search for Another Location

Airport:

Trip Planner

Search our weather history database for the weather conditions in past years. The results will help you decide how hot, cold, wet, or windy it might be!

Date:

Astronomy

Sep. 06, 2012 Rise Set
Actual Time 5:54 AM EEST 6:44 PM EEST
Civil Twilight 5:27 AM EEST 7:12 PM EEST
Nautical Twilight 4:54 AM EEST 7:44 PM EEST
Astronomical Twilight 4:21 AM EEST 8:18 PM EEST
Moon 9:41 PM EEST (9/6) 11:33 AM EEST (9/6)
Length of Visible Light 13h 44m
Length of Day
12h 50m
Waning Gibbous, 70% of the Moon is Illuminated
Sep 6
Waning Gibbous
Sep 8
Last Quarter
Sep 16
New
Sep 22
First Quarter
Sep 30
Full

Hourly Weather History & Observations

Time (EEST) Temp. Dew Point Humidity Pressure Visibility Wind Dir Wind Speed Gust Speed Precip Events Conditions
12:50 AM 64.4 °F 46.4 °F 52% 30.01 in - Calm Calm - N/A   Clear
1:50 AM 60.8 °F 48.2 °F 63% 30.01 in - Calm Calm - N/A   Clear
3:00 AM 57 °F 47 °F 61%  in 6 mi Calm Calm - -  
3:50 AM 55.4 °F 48.2 °F 77% 30.04 in - Calm Calm - N/A   Clear
4:50 AM 55.4 °F 48.2 °F 77% 30.04 in - Calm Calm - N/A   Clear
5:50 AM 53.6 °F 46.4 °F 77% 30.04 in - Calm Calm - N/A   Clear
7:50 AM 62.6 °F 50.0 °F 63% 30.04 in - Calm Calm - N/A   Clear
8:50 AM 69.8 °F 44.6 °F 40% 30.04 in - Variable 2.3 mph - N/A   Clear
9:00 AM 69 °F 44 °F 29%  in 6 mi SSW 2.3 mph - -  
9:50 AM 73.4 °F 44.6 °F 36% 30.04 in - Variable 2.3 mph - N/A   Clear
10:50 AM 78.8 °F 42.8 °F 28% 30.01 in - Variable 3.5 mph - N/A   Clear
11:50 AM 80.6 °F 41.0 °F 24% 29.98 in - Variable 2.3 mph - N/A   Clear
12:50 PM 84.2 °F 33.8 °F 16% 29.98 in - South 4.6 mph - N/A   Clear
1:50 PM 87.8 °F 35.6 °F 16% 29.92 in - Variable 1.2 mph - N/A   Clear
2:50 PM 87.8 °F 35.6 °F 16% 29.92 in - Variable 4.6 mph - N/A   Clear
3:00 PM 88 °F 34 °F 7%  in 6 mi WNW 4.6 mph - -  
3:50 PM 89.6 °F 35.6 °F 15% 29.89 in - Variable 2.3 mph - N/A   Clear
4:50 PM 89.6 °F 35.6 °F 15% 29.89 in - SW 4.6 mph - N/A   Clear
5:50 PM 87.8 °F 39.2 °F 18% 29.89 in - SSW 3.5 mph - N/A   Clear
7:50 PM 78.8 °F 41.0 °F 26% 29.89 in - NNE 2.3 mph - N/A   Clear
8:50 PM 75.2 °F 41.0 °F 29% 29.92 in - North 5.8 mph - N/A   Clear
9:00 PM 76 °F 40 °F 18%  in 6 mi North 5.8 mph - -  
9:50 PM 68.0 °F 37.4 °F 33% 29.92 in - Variable 1.2 mph - N/A   Clear
10:50 PM 66.2 °F 42.8 °F 43% 29.95 in - North 2.3 mph - N/A   Clear
11:50 PM 57.2 °F 48.2 °F 72% 29.95 in - Variable 1.2 mph - N/A   Clear